Location: Beccas
(43.4309°N, 0.1528°E)
Time: 21:34:11
(UTC+00:00)

Okean O Rocket - Pass Details

Date: 15 October 2021
Orbit: 623 x 643 km, 98.2° (Epoch: 29 November)

Event Time Altitude Azimuth Distance (km) Brightness Sun altitude
Rises 17:33:56 0° 145° (SE) 2,893 4.7 -4.0°
Reaches altitude 10° 17:36:14 10° 137° (SE) 1,991 3.8 -4.4°
Maximum altitude 17:40:13 37° 70° (ENE) 969 2.1 -5.2°
Drops below altitude 10° 17:44:14 10° 3° (N) 2,006 4.1 -5.9°
Sets 17:46:33 0° 355° (N) 2,919 5.0 -6.3°
